Date,TemperatureHighF,TemperatureAvgF,TemperatureLowF,DewpointHighF,DewpointAvgF,DewpointLowF,HumidityHigh,HumidityAvg,HumidityLow,PressureMaxIn,PressureMinIn,WindSpeedMaxMPH,WindSpeedAvgMPH,GustSpeedMaxMPH,PrecipitationSumIn
2014-1-1,8,0,-7,-6,-12,-16,63,56,43,0.00,40.00,5,2,11,0.00
2014-1-2,9,3,-11,-4,-8,-17,74,59,42,0.00,40.00,11,4,17,0.00
2014-1-3,17,0,-19,8,-8,-25,75,68,56,0.00,40.00,13,5,30,0.00
2014-1-4,29,22,12,18,10,-100,68,62,58,0.00,40.00,12,7,21,0.00
2014-1-5,12,0,-11,0,-12,-21,62,56,48,0.00,40.00,12,8,21,0.00
2014-1-6,-11,-16,-22,-21,-26,-31,62,58,50,0.00,40.00,11,9,22,0.00
2014-1-7,4,-10,-19,-12,-20,-26,68,59,43,0.00,40.00,8,5,16,0.00
2014-1-8,7,0,-9,-9,-14,-19,61,52,41,0.00,40.00,7,3,15,0.00
2014-1-9,17,5,-9,3,-7,-19,61,58,56,0.00,40.00,2,1,7,0.00
2014-1-10,32,32,31,31,30,28,94,93,92,0.00,40.00,4,2,11,0.00
2014-1-11,32,30,28,31,26,-100,94,89,84,0.00,40.00,12,6,21,0.00
2014-1-12,41,33,24,29,24,22,91,72,47,0.00,40.00,12,-31,17,0.00
2014-1-13,38,25,19,31,-7,-100,99,81,55,0.00,40.00,9,3,21,0.00
2014-1-14,29,23,15,26,20,10,91,88,82,0.00,40.00,15,-14,26,0.00
2014-1-15,16,12,8,10,4,0,82,71,53,0.00,40.00,11,6,21,0.00
2014-1-16,31,22,11,27,16,3,87,77,63,0.00,40.00,13,8,24,0.00
2014-1-17,19,17,13,10,9,8,80,71,65,0.00,40.00,11,8,19,0.00
2014-1-18,18,11,2,6,2,-5,81,69,58,0.00,40.00,2,1,7,0.00
2014-1-19,38,18,18,18,-36,-100,99,71,43,0.00,40.00,6,2,16,0.00
2014-1-20,17,11,7,12,-9,-100,99,68,55,0.00,40.00,9,4,18,0.00
2014-1-21,7,4,-5,-5,-11,-14,70,52,41,0.00,40.00,7,3,16,0.00
2014-1-22,8,3,-3,1,-7,-14,78,61,51,0.00,40.00,10,8,22,0.00
2014-1-23,5,-1,-8,-9,-14,-18,70,56,44,0.00,40.00,9,-88,21,0.00
2014-1-24,24,17,10,13,4,-1,64,56,51,0.00,40.00,11,7,22,0.00
2014-1-25,9,6,1,-9,-14,-100,48,43,37,0.00,40.00,16,9,27,0.00
2014-1-26,17,14,9,9,6,1,78,71,54,0.00,40.00,11,7,26,0.00
2014-1-27,-5,-9,-12,-21,-22,-23,62,52,43,0.00,40.00,10,8,21,0.00
2014-1-28,4,-3,-11,-14,-16,-18,70,52,40,0.00,40.00,9,6,17,0.00
2014-1-29,18,12,-4,-4,-7,-13,67,46,37,0.00,40.00,9,7,19,0.00
2014-1-30,29,22,13,24,15,4,81,76,70,0.00,40.00,7,5,15,0.00
2014-1-31,8,3,-8,-1,-10,-16,70,57,42,0.00,40.00,7,5,12,0.00
2014-2-1,10,-4,-8,2,-16,-100,68,65,68,0.00,40.00,4,1,7,0.00
2014-2-2,13,8,4,1,-3,-9,82,64,37,0.00,40.00,7,5,12,0.00
2014-2-3,24,10,-17,4,-4,-22,77,56,41,0.00,40.00,7,3,15,0.00
2014-2-4,21,15,4,3,2,0,84,59,44,0.00,40.00,4,2,7,0.00
2014-2-12,20,19,17,9,8,7,65,63,61,0.00,40.00,5,4,7,0.00
2014-2-13,27,23,19,21,18,15,86,82,79,0.00,40.00,9,5,15,0.00
2014-2-14,22,18,13,6,4,0,71,55,43,0.00,40.00,11,8,20,0.00
2014-2-15,14,14,14,10,10,10,82,82,82,0.00,40.00,0,0,1,0.00
2014-2-16,19,19,19,5,5,5,55,55,55,0.00,40.00,6,6,9,0.00
2014-2-17,23,22,22,18,18,17,83,81,79,0.00,40.00,6,6,14,0.00
2014-2-18,36,32,29,25,24,23,79,70,62,0.00,40.00,4,4,17,0.00
2014-2-19,36,31,24,20,19,17,76,61,50,0.00,40.00,6,4,14,0.00
2014-2-20,34,34,34,31,30,30,90,86,82,0.00,40.00,7,5,21,0.00
2014-2-21,24,20,17,8,8,7,66,60,50,0.00,40.00,15,13,35,0.00
2014-2-23,15,15,15,-2,-2,-2,47,47,47,0.00,40.00,11,11,22,0.00
2014-2-24,14,13,11,-1,-2,-2,56,51,48,0.00,40.00,12,9,23,0.00
2014-2-25,13,12,12,-9,-10,-11,37,36,35,0.00,40.00,12,11,26,0.00
2014-2-26,10,-2,-6,-2,-12,-15,63,61,57,0.00,40.00,6,5,16,0.00
2014-2-27,-7,-7,-7,-25,-25,-25,40,40,40,0.00,40.00,0,0,2,0.00
2014-2-28,15,0,-23,0,-13,-30,72,56,45,0.00,40.00,6,3,16,0.00
2014-3-1,8,8,8,-3,-3,-3,61,61,61,0.00,40.00,6,6,11,0.00
2014-3-2,-5,-5,-5,-19,-19,-19,48,48,48,0.00,40.00,7,7,15,0.00
2014-3-3,17,9,-10,-9,-12,-21,65,39,29,0.00,40.00,6,4,13,0.00
2014-3-4,21,17,9,7,3,1,84,56,47,0.00,40.00,4,3,9,0.00
2014-3-5,22,20,16,3,-1,-4,56,40,32,0.00,40.00,4,2,13,0.00
2014-3-6,29,23,11,11,8,6,78,54,40,0.00,40.00,7,5,14,0.00
2014-3-7,40,33,26,23,19,17,68,59,51,0.00,40.00,6,4,12,0.00
2014-3-10,56,55,54,25,25,25,32,31,30,0.00,40.00,3,3,9,0.00
2014-3-11,44,41,39,33,28,24,72,58,47,0.00,40.00,7,5,11,0.00
2014-3-12,25,24,24,9,6,4,52,45,41,0.00,40.00,11,10,17,0.00
2014-3-13,40,31,18,26,18,11,73,60,49,0.00,40.00,10,6,17,0.00
2014-3-14,47,43,39,30,28,27,61,55,45,0.00,40.00,9,6,23,0.00
2014-3-15,25,25,25,13,13,13,61,61,61,0.00,40.00,3,3,5,0.00
2014-3-16,24,20,13,3,2,0,65,46,37,0.00,40.00,3,2,10,0.00
2014-3-17,33,29,24,15,13,12,69,51,41,0.00,40.00,7,6,19,0.00
2014-3-19,37,34,32,31,31,31,94,88,79,0.00,40.00,10,7,17,0.00
2014-3-20,32,32,32,20,20,20,62,62,62,0.00,40.00,6,6,16,0.00
2014-3-21,47,47,47,22,22,22,37,37,37,0.00,40.00,7,7,16,0.00
2014-3-24,35,33,31,13,10,7,39,38,36,0.00,40.00,9,8,17,0.00
2014-3-25,22,22,22,-2,-2,-2,35,35,35,0.00,40.00,10,10,19,0.00
2014-3-26,35,31,26,13,10,8,46,41,37,0.00,40.00,10,8,19,0.00
2014-3-27,36,36,36,33,33,33,91,91,91,0.00,40.00,3,3,9,0.00
2014-3-28,31,31,31,21,21,21,66,66,66,0.00,40.00,12,12,21,0.00
2014-3-31,54,54,54,32,32,32,43,43,43,0.00,40.00,7,7,14,0.00
2014-4-1,38,31,28,21,19,17,75,64,45,0.00,40.00,14,12,29,0.00
2014-4-2,34,17,34,17,-42,-100,99,74,50,0.00,40.00,1,0,7,0.00
2014-4-3,-200,0,200,-100,-100,-100,99,99,99,0.00,40.00,0,0,0,0.00
2014-4-4,33,32,32,31,31,31,95,95,95,0.00,40.00,4,4,7,0.00
2014-4-8,47,23,42,37,-28,-100,99,86,68,0.00,40.00,6,3,11,0.00
2014-4-10,59,59,59,19,19,19,21,21,21,0.00,40.00,14,14,28,0.00
2014-4-11,57,53,48,27,27,27,44,37,32,0.00,40.00,4,4,9,0.00
2014-4-12,39,39,39,37,37,37,90,90,90,0.00,40.00,0,0,2,0.00
2014-4-14,29,29,29,23,23,23,80,80,80,0.00,40.00,22,22,30,0.00
2014-4-15,28,28,28,9,9,9,44,44,44,0.00,40.00,6,6,11,0.00
2014-4-16,44,44,44,23,23,23,43,43,43,0.00,40.00,4,4,21,0.00
2014-4-17,50,48,46,35,33,31,58,55,50,0.00,40.00,9,8,17,0.00
2014-4-18,33,33,33,24,24,24,69,69,69,0.00,40.00,2,2,6,0.00
2014-4-21,52,52,51,50,44,26,93,79,37,0.00,40.00,14,5,26,0.00
2014-4-22,54,45,32,26,24,21,64,45,28,0.00,40.00,15,7,24,0.00
2014-4-23,27,26,25,23,22,22,88,83,80,0.00,40.00,1,0,2,0.00
2014-4-24,43,41,40,41,39,38,93,93,93,0.00,40.00,6,4,16,0.00
2014-4-25,58,47,42,41,36,27,93,67,42,0.00,40.00,9,5,17,0.00
2014-4-26,36,32,29,28,26,23,91,80,59,0.00,40.00,2,1,4,0.00
2014-4-27,39,34,29,37,31,27,93,90,88,0.00,40.00,4,2,14,0.00
2014-4-28,-200,0,200,-100,-100,-100,99,99,99,0.00,40.00,0,0,0,0.00
2014-4-29,-200,0,200,-100,-100,-100,99,99,99,0.00,40.00,0,0,0,0.00
2014-4-30,-200,0,200,-100,-100,-100,99,99,99,0.00,40.00,0,0,0,0.00
2014-5-1,-200,0,200,-100,-100,-100,99,99,99,0.00,40.00,0,0,0,0.00
2014-5-2,-200,0,200,-100,-100,-100,99,99,99,0.00,40.00,0,0,0,0.00
2014-5-3,-200,0,200,-100,-100,-100,99,99,99,0.00,40.00,0,0,0,0.00
2014-5-4,61,58,49,24,19,17,37,22,19,0.00,40.00,4,2,11,0.00
2014-5-5,-200,0,200,-100,-100,-100,99,99,99,0.00,40.00,0,0,0,0.00
2014-5-6,62,58,54,29,28,27,36,32,29,0.00,40.00,7,7,19,0.00
2014-5-13,52,52,52,34,34,34,51,51,51,0.00,40.00,7,7,14,0.00
2014-5-14,-200,0,200,-100,-100,-100,99,99,99,0.00,40.00,0,0,0,0.00
2014-5-15,47,19,40,34,-43,-100,99,85,55,0.00,40.00,6,2,13,0.00
2014-5-16,-200,0,200,-100,-100,-100,99,99,99,0.00,40.00,0,0,3,0.00
2014-5-17,56,56,56,23,23,23,28,28,28,0.00,40.00,0,0,2,0.00
2014-5-18,-200,0,200,-100,-100,-100,99,99,99,0.00,40.00,0,0,0,0.00
2014-5-19,60,10,60,37,-77,-100,99,90,43,0.00,40.00,11,2,20,0.00
2014-5-20,-200,0,200,-100,-100,-100,99,96,99,0.00,40.00,0,0,0,0.00
2014-5-21,-200,0,200,-100,-100,-100,99,99,99,0.00,40.00,0,0,0,0.00
2014-5-22,-200,0,200,-100,-100,-100,99,99,99,0.00,40.00,0,0,0,0.00
2014-5-23,-200,0,200,-100,-100,-100,99,99,99,0.00,40.00,0,0,9,0.00
2014-5-27,-200,0,200,-100,-100,-100,99,99,99,0.00,40.00,0,0,0,0.00
2014-5-28,-200,0,200,-100,-100,-100,99,99,99,0.00,40.00,0,0,0,0.00
2014-5-29,-200,0,200,-100,-100,-100,99,99,99,0.00,40.00,0,0,0,0.00
2014-5-30,-200,0,200,-100,-100,-100,99,99,99,0.00,40.00,0,0,0,0.00
2014-6-2,-200,0,200,-100,-100,-100,99,99,99,0.00,40.00,0,0,0,0.00
2014-6-3,-200,0,200,-100,-100,-100,99,99,99,0.00,40.00,0,0,0,0.00
2014-6-4,-200,0,200,-100,-100,-100,99,99,99,0.00,40.00,0,0,0,0.00
2014-6-5,-200,0,200,-100,-100,-100,99,99,99,0.00,40.00,0,0,0,0.00
2014-6-6,-200,0,200,-100,-100,-100,99,99,99,0.00,40.00,0,0,0,0.00
2014-6-7,-200,0,200,-100,-100,-100,99,97,99,0.00,40.00,0,0,1,0.00
2014-6-8,-200,0,200,-100,-100,-100,99,99,99,0.00,40.00,0,0,0,0.00
2014-6-9,59,13,43,50,-62,-100,99,96,73,0.00,40.00,2,0,7,0.00
2014-6-10,-200,0,200,-100,-100,-100,99,99,99,0.00,40.00,0,0,0,0.00
2014-6-11,-200,0,200,-100,-100,-100,99,99,99,0.00,40.00,0,0,0,0.00
2014-6-12,-200,0,200,-100,-100,-100,99,99,99,0.00,40.00,0,0,0,0.00
2014-6-13,-200,0,200,-100,-100,-100,99,99,99,0.00,40.00,0,0,0,0.00
2014-6-14,-200,0,200,-100,-100,-100,99,99,99,0.00,40.00,0,0,0,0.00
2014-6-15,-200,0,200,-100,-100,-100,99,99,99,0.00,40.00,0,0,0,0.00
2014-6-16,-200,0,200,-100,-100,-100,99,99,99,0.00,40.00,0,0,0,0.00
2014-6-17,-200,0,200,-100,-100,-100,99,99,99,0.00,40.00,0,0,0,0.00
2014-6-18,-200,0,200,-100,-100,-100,99,99,99,0.00,40.00,0,0,0,0.00
2014-6-19,-200,0,200,-100,-100,-100,99,99,99,0.00,40.00,0,0,0,0.00
2014-6-20,-200,0,200,-100,-100,-100,99,99,99,0.00,40.00,0,0,0,0.00
2014-6-22,70,70,70,65,65,65,84,84,84,0.00,40.00,1,1,5,0.00
2014-6-23,81,75,66,66,60,57,92,64,44,0.00,40.00,6,3,13,0.00
2014-6-24,-200,0,200,-100,-100,-100,99,99,99,0.00,40.00,0,0,0,0.00
2014-6-25,-200,0,200,-100,-100,-100,99,99,99,0.00,40.00,0,0,0,0.00
2014-6-26,-200,0,200,-100,-100,-100,99,99,99,0.00,40.00,0,0,0,0.00
2014-6-27,-200,0,200,-100,-100,-100,99,99,99,0.00,40.00,0,0,0,0.00
2014-6-28,-200,0,200,-100,-100,-100,99,99,99,0.00,40.00,0,0,0,0.00
2014-6-29,-200,0,200,-100,-100,-100,99,99,99,0.00,40.00,0,0,0,0.00
2014-6-30,-200,0,200,-100,-100,-100,99,99,99,0.00,40.00,0,0,0,0.00
2014-7-1,-200,0,200,-100,-100,-100,99,99,99,0.00,40.00,0,0,0,0.00
2014-7-2,-200,0,200,-100,-100,-100,99,99,99,0.00,40.00,0,0,0,0.00
2014-7-3,-200,0,200,-100,-100,-100,99,99,99,0.00,40.00,0,0,0,0.00
2014-7-4,-200,0,200,-100,-100,-100,99,99,99,0.00,40.00,0,0,0,0.00
2014-7-5,-200,0,200,-100,-100,-100,99,95,99,0.00,40.00,0,0,0,0.00
2014-7-6,-200,0,200,-100,-100,-100,99,99,99,0.00,40.00,0,0,0,0.00
2014-7-7,86,14,80,53,-74,-100,99,88,32,0.00,40.00,9,1,17,0.00
2014-7-8,-200,0,200,-100,-100,-100,99,99,99,0.00,40.00,0,0,0,0.00
2014-7-9,-200,0,200,-100,-100,-100,99,99,99,0.00,40.00,0,0,0,0.00
2014-7-10,-200,0,200,-100,0,200,99,99,99,0.00,40.00,0,0,0,0.00
2014-7-11,-200,0,200,-100,0,200,99,99,99,0.00,40.00,0,0,0,0.00
2014-7-14,-200,0,200,-100,0,200,99,99,99,0.00,40.00,0,0,0,0.00
2014-7-15,-200,0,200,-100,0,200,99,99,99,0.00,40.00,0,0,0,0.00
2014-7-16,-200,0,200,-100,0,200,99,99,99,0.00,40.00,0,0,0,0.00
2014-7-17,-200,0,200,-100,0,200,99,99,99,0.00,40.00,0,0,0,0.00
2014-7-18,-200,0,200,-100,0,200,99,99,99,0.00,40.00,0,0,0,0.00
2014-7-19,-200,0,200,-100,0,200,99,99,99,0.00,40.00,0,0,0,0.00
2014-7-20,-200,0,200,-100,0,200,99,99,99,0.00,40.00,0,0,0,0.00
2014-7-21,76,6,73,67,5,63,99,97,65,0.00,40.00,2,0,4,0.00
2014-7-22,91,80,70,69,64,56,90,62,41,0.00,40.00,12,7,21,0.00
2014-7-23,64,57,52,57,55,50,93,92,79,0.00,40.00,2,2,6,0.00
2014-7-24,72,28,58,58,25,42,99,92,35,0.00,40.00,3,1,10,0.00
2014-7-25,-200,0,200,-100,0,200,99,99,99,0.00,40.00,0,0,0,0.00
2014-7-26,83,34,65,67,27,61,99,84,50,0.00,40.00,9,1,12,0.00
2014-7-27,75,67,59,67,56,51,93,71,44,0.00,40.00,16,6,26,0.00
2014-7-28,74,52,52,51,38,42,99,66,34,0.00,40.00,11,6,21,0.00
2014-7-29,-200,0,200,-100,0,200,99,99,99,0.00,40.00,0,0,0,0.00
2014-7-30,-200,0,200,-100,0,200,99,99,99,0.00,40.00,0,0,0,0.00
2014-7-31,-200,0,200,-100,0,200,99,99,99,0.00,40.00,0,0,0,0.00
2014-8-1,-200,0,200,-100,0,200,99,99,99,0.00,40.00,0,0,0,0.00
2014-8-2,83,33,69,62,23,51,99,76,33,0.00,40.00,4,1,10,0.00
2014-8-3,86,72,57,69,58,54,93,66,37,0.00,40.00,8,3,16,0.00
2014-8-4,74,32,60,64,29,58,99,92,61,0.00,40.00,4,0,7,0.00
2014-8-5,80,68,59,63,56,49,93,70,34,0.00,40.00,3,1,9,0.00
2014-8-6,85,70,52,63,53,44,93,62,26,0.00,40.00,4,2,9,0.00
2014-8-7,83,65,53,60,51,45,93,67,28,0.00,40.00,4,1,11,0.00
2014-8-8,85,55,51,62,42,46,99,72,26,0.00,40.00,4,1,13,0.00
2014-8-9,83,34,56,52,22,48,99,74,31,0.00,40.00,4,1,14,0.00
2014-8-10,83,66,50,63,54,48,93,68,36,0.00,40.00,4,1,10,0.00
2014-8-11,80,67,57,63,58,53,92,75,39,0.00,40.00,11,4,20,0.00
2014-8-12,75,63,53,58,48,40,90,63,30,0.00,40.00,13,7,26,0.00
2014-8-13,60,51,52,49,45,48,99,82,64,0.00,40.00,2,0,4,0.00
2014-8-14,74,30,59,44,18,34,99,72,24,0.00,40.00,6,1,12,0.00
2014-8-15,82,61,42,61,48,40,93,67,34,0.00,40.00,7,2,12,0.00
2014-8-16,67,9,62,62,9,59,99,96,83,0.00,40.00,3,0,6,0.00
2014-8-17,-200,0,200,-100,0,200,99,99,99,0.00,40.00,0,0,0,0.00
2014-8-18,81,13,79,63,10,61,99,92,53,0.00,40.00,9,1,17,0.00
2014-8-19,77,33,62,62,28,55,99,84,48,0.00,40.00,9,2,14,0.00
2014-8-20,83,68,58,66,59,56,93,77,39,0.00,40.00,6,2,12,0.00
2014-8-21,79,68,61,70,64,58,93,88,65,0.00,40.00,3,1,11,0.00
2014-8-22,74,70,69,71,68,67,93,93,91,0.00,40.00,2,1,4,0.00
2014-8-23,78,73,71,73,70,68,92,90,83,0.00,40.00,3,1,9,0.00
2014-8-24,84,74,67,71,67,64,91,79,61,0.00,40.00,5,2,12,0.00
2014-8-25,84,74,67,70,67,65,93,80,52,0.00,40.00,7,3,19,0.00
2014-8-26,76,51,63,69,40,47,99,71,37,0.00,40.00,9,4,16,0.00
2014-8-27,77,25,72,52,16,47,99,80,37,0.00,40.00,6,1,12,0.00
2014-8-28,74,24,62,58,19,54,99,86,50,0.00,40.00,4,1,11,0.00
2014-8-29,85,37,75,69,30,65,99,83,51,0.00,40.00,9,2,16,0.00
2014-8-30,75,68,65,67,64,60,93,86,61,0.00,40.00,8,4,17,0.00
2014-8-31,84,71,61,66,62,58,93,76,45,0.00,40.00,6,2,16,0.00
2014-9-1,76,69,59,67,62,55,92,80,57,0.00,40.00,5,3,12,0.00
2014-9-2,74,37,56,56,27,53,99,76,47,0.00,40.00,2,1,10,0.00
2014-9-3,83,76,70,63,56,50,77,52,36,0.00,40.00,12,4,18,0.00
2014-9-4,80,73,67,71,65,61,92,79,55,0.00,40.00,14,4,26,0.00
2014-9-5,79,52,64,72,44,47,99,78,50,0.00,40.00,14,5,22,0.00
2014-9-6,76,25,58,49,15,40,99,77,30,0.00,40.00,10,2,20,0.00
2014-9-7,79,36,53,53,24,40,99,74,26,0.00,40.00,6,1,9,0.00
2014-9-8,74,58,45,58,47,44,93,73,37,0.00,40.00,11,3,18,0.00
2014-9-9,80,67,53,65,55,51,93,72,41,0.00,40.00,6,3,13,0.00
2014-9-10,72,61,47,69,56,37,93,84,68,0.00,40.00,15,6,30,0.00
2014-9-11,54,48,44,42,36,34,82,66,50,0.00,40.00,9,5,20,0.00
2014-9-12,47,43,38,40,38,33,93,83,57,0.00,40.00,4,2,7,0.00
2014-9-13,44,17,44,39,15,39,99,91,82,0.00,40.00,2,1,7,0.00
2014-9-14,-200,0,200,-100,0,200,99,99,99,0.00,40.00,0,0,0,0.00
2014-9-15,-200,0,200,-100,0,200,99,99,99,0.00,40.00,0,0,0,0.00
2014-9-16,67,11,48,42,7,33,99,89,29,0.00,40.00,3,0,14,0.00
2014-9-17,72,10,61,47,6,40,99,90,34,0.00,40.00,1,0,6,0.00
2014-9-18,-200,0,200,-100,0,200,99,99,99,0.00,40.00,0,0,0,0.00
2014-9-19,-200,0,200,-100,0,200,99,99,99,0.00,40.00,0,0,0,0.00
2014-9-23,75,47,59,49,30,43,99,60,32,0.00,40.00,7,2,12,0.00
2014-9-24,57,3,57,55,3,55,99,99,91,0.00,40.00,0,0,2,0.00
2014-9-25,79,55,56,61,45,42,99,76,28,0.00,40.00,4,1,10,0.00
2014-9-26,78,28,53,53,20,45,99,82,31,0.00,40.00,6,1,9,0.00
2014-9-27,83,38,50,57,29,48,99,78,32,0.00,40.00,5,1,10,0.00
2014-9-28,83,63,48,65,52,46,93,73,31,0.00,40.00,3,1,10,0.00
2014-9-29,71,55,48,56,50,42,93,84,55,0.00,40.00,11,3,18,0.00
2014-9-30,46,25,41,40,22,36,99,89,79,0.00,40.00,2,1,11,0.00
2014-10-1,-200,0,200,-100,0,200,99,99,99,0.00,40.00,0,0,0,0.00
2014-10-2,68,12,66,60,10,56,99,94,66,0.00,40.00,4,0,7,0.00
2014-10-3,-200,0,200,-100,0,200,99,99,99,0.00,40.00,0,0,0,0.00
2014-10-4,-200,0,200,-100,0,200,99,98,99,0.00,40.00,0,0,0,0.00
2014-10-5,50,27,42,33,16,23,99,69,37,0.00,40.00,9,3,17,0.00
2014-10-6,55,43,28,40,28,20,93,63,25,0.00,40.00,9,3,22,0.00
2014-10-7,51,51,51,34,34,34,52,52,52,0.00,40.00,4,4,12,0.00
2014-10-8,51,10,29,37,9,27,99,96,52,0.00,40.00,6,0,12,0.00
2014-10-9,51,23,27,33,18,25,99,85,38,0.00,40.00,6,2,14,0.00
2014-10-10,51,22,29,37,18,27,99,89,42,0.00,40.00,2,0,7,0.00
2014-10-11,34,21,29,30,19,27,99,91,87,0.00,40.00,0,0,1,0.00
2014-10-12,52,14,24,36,12,23,99,93,49,0.00,40.00,6,1,12,0.00
2014-10-13,-200,0,200,-100,0,200,99,99,99,0.00,40.00,0,0,0,0.00
2014-10-14,-200,0,200,-100,0,200,99,99,99,0.00,40.00,0,0,0,0.00
2014-10-15,-200,0,200,-100,0,200,99,99,99,0.00,40.00,0,0,0,0.00
2014-10-16,67,20,48,45,14,38,99,83,35,0.00,40.00,4,1,9,0.00
2014-10-17,-200,0,200,-100,0,200,99,99,99,0.00,40.00,0,0,0,0.00
2014-10-18,31,3,28,28,3,27,99,98,91,0.00,40.00,0,0,1,0.00
2014-10-19,53,19,25,39,17,24,99,93,53,0.00,40.00,6,1,14,0.00
2014-10-20,-200,0,200,-100,0,200,99,99,99,0.00,40.00,0,0,0,0.00
2014-10-21,-200,0,200,-100,0,200,99,99,99,0.00,40.00,0,0,0,0.00
2014-10-22,59,50,38,36,34,31,94,58,34,0.00,40.00,4,3,13,0.00
2014-10-23,47,43,39,45,42,38,95,95,95,0.00,40.00,1,1,4,0.00
2014-10-24,59,54,49,48,48,47,95,80,64,0.00,40.00,6,5,11,0.00
2014-10-27,64,16,64,57,14,57,99,94,79,0.00,40.00,0,0,0,0.00
2014-10-28,49,47,46,36,32,30,69,55,50,0.00,40.00,10,8,21,0.00
2014-10-29,47,39,28,29,28,26,91,66,50,0.00,40.00,9,4,21,0.00
2014-10-30,51,41,31,32,30,29,94,69,43,0.00,40.00,4,3,10,0.00
2014-10-31,37,31,27,29,16,12,99,58,39,0.00,40.00,14,7,29,0.00
2014-11-1,25,20,25,20,16,20,80,80,80,0.00,40.00,1,1,1,0.00
2014-11-2,37,26,20,27,21,18,91,83,68,0.00,40.00,6,3,17,0.00
2014-11-3,51,47,37,43,38,18,84,72,46,0.00,40.00,4,1,7,0.00
2014-11-4,51,47,43,48,31,23,92,56,36,0.00,40.00,13,7,26,0.00
2014-11-5,44,44,43,34,31,28,69,62,53,0.00,40.00,2,2,5,0.00
2014-11-6,38,36,34,33,27,23,93,71,57,0.00,40.00,12,8,24,0.00
2014-11-7,41,20,33,26,14,21,99,81,44,0.00,40.00,6,1,9,0.00
2014-11-8,-200,0,200,-100,0,200,99,99,99,0.00,40.00,0,0,0,0.00
2014-11-9,-200,0,200,-100,0,200,99,99,99,0.00,40.00,0,0,0,0.00
2014-11-10,-200,0,200,-100,0,200,99,99,99,0.00,40.00,0,0,0,0.00
2014-11-11,33,33,33,32,31,31,94,94,93,0.00,40.00,7,5,14,0.00
2014-11-12,33,26,19,31,22,13,94,80,68,0.00,40.00,9,6,16,0.00
2014-11-13,26,22,19,16,14,12,82,70,57,0.00,40.00,11,6,16,0.00
2014-11-14,21,19,9,16,15,5,87,84,82,0.00,40.00,4,4,9,0.00
2014-11-15,25,15,4,18,9,1,89,78,43,0.00,40.00,6,1,9,0.00
2014-11-16,20,19,12,18,17,3,89,87,67,0.00,40.00,4,1,9,0.00
2014-11-17,13,11,8,8,4,1,83,71,57,0.00,40.00,12,7,22,0.00